Regional Weather Roundup
Issued by NWS

Home | Current Version | Previous Version | Graphics & Text | Print | Product List | Glossary On
Versions: 1 2 3 4 5 6 7 8 9 10 11 12 13 14 15 16 17 18 19 20 21 22 23 24 25 26 27 28 29 30 31 32 33 34 35 36 37 38 39 40 41 42 43 44 45 46 47 48 49 50
000
ASUS43 KFSD 021510
RWRSD

WEATHER ROUNDUP FOR SOUTH DAKOTA
NATIONAL WEATHER SERVICE SIOUX FALLS SD
900 AM CST MON MAR 02 2015

NOTE: "FAIR" INDICATES FEW OR NO CLOUDS BELOW 12,000 FEET WITH NO
SIGNIFICANT WEATHER AND/OR OBSTRUCTIONS TO VISIBILITY.


SDZ001>005-009-010-012>017-021600-
NORTHWEST AND NORTH CENTRAL SOUTH DAKOTA

CITY           SKY/WX    TMP DP  RH WIND       PRES   REMARKS
BUFFALO          N/A     17   9  70 SE9       29.84F WCI   6
FAITH            N/A     17   9  70 SE21G26   29.99F WCI   0
MOBRIDGE       SUNNY     19  13  77 SE15      30.12F WCI   5
$$

SDZ012>016-024>037-041>051-057-063-072>074-021600-
SOUTHWEST AND SOUTH CENTRAL SOUTH DAKOTA

CITY           SKY/WX    TMP DP  RH WIND       PRES   REMARKS
RAPID CTY ARPT MOSUNNY   24  14  65 S17G25    29.94F WCI  11
PIERRE         MOSUNNY   21  15  78 SE14      30.17F WCI   8
CUSTER         MOSUNNY   21  15  78 SW10      29.86F WCI  10
ELLSWORTH AFB  SUNNY     25  14  64 S22G30    29.91F WCI  10
PHILIP         MOSUNNY   26  12  55 SE13      30.08F WCI  15
PINE RIDGE     MOSUNNY   31  15  52 S24G36    29.99F WCI  17
WINNER         CLOUDY    26   8  46 SE21      30.21F WCI  12
$$

SDZ004>011-016>023-039-040-021600-
NORTHEAST SOUTH DAKOTA

CITY           SKY/WX    TMP DP  RH WIND       PRES   REMARKS
ABERDEEN       SUNNY     16   8  71 S14       30.32F WCI   2
WATERTOWN      MOSUNNY    8   4  83 S9        30.34F WCI  -5
SISSETON         N/A     18   8  65 S9        30.36F WCI   7
$$

SDZ017-020-022-023-036>040-048>070-021600-
SOUTHEAST SOUTH DAKOTA

CITY           SKY/WX    TMP DP  RH WIND       PRES   REMARKS
SIOUX FALLS    PTSUNNY   19  12  74 SE13      30.41F WCI   6
HURON          MOSUNNY   15  12  88 S12       30.35F WCI   2
CHAMBERLAIN    MOSUNNY   23  14  69 SE16      30.26F WCI   9
MITCHELL       PTSUNNY   20  16  84 SE13      30.38F WCI   7
YANKTON        MOSUNNY   18  16  93 E6        30.43S WCI   9
$$

ABBREVIATIONS USED IN REMARKS
   TC - TEMPERATURE IN CELSIUS
  WCI - WIND CHILL INDEX
   HX - HEAT INDEX
  VSB - VISIBILITY



USA.gov is the U.S. government's official web portal to all federal, state and local government web resources and services.